User: anonymous   Login
Location: Unspecified
(0.0000°N, 0.0000°E)
Time: 00:40:25
(UTC+00:00)
Language:

AEROCUBE 6B - Orbit

View from above orbital plane
View from above orbital plane
View from above satellite
View from above satellite

Ground track
Ground track

The orbit data is extracted from the following two-line orbital elements,

1 40046U 14033AN  17206.60486558 +.00000306 +00000-0 +52014-4 0  9998
2 40046 097.8636 091.1679 0057624 164.1111 196.1923 14.74846768166141
Epoch (UTC): 25 July 2017 14:31:00
Eccentricity: 0.0057624
inclination: 97.8636°
perigee height: 605 km
apogee height: 686 km
right ascension of ascending node: 91.1679°
argument of perigee: 164.1111°
revolutions per day: 14.74846768
mean anomaly at epoch: 196.1923°
orbit number at epoch: 16614

The dashed part of the orbit path shows where the satellite is in the earth's shadow,  

DLR